sat.trackr.live / text

‹ back to catalog

LEMUR-2-MJR092620

NORAD 58340 · 2023-174CN

PAYLOAD ACTIVE UNKNOWN

§ Identity

Operator
Country
US
Launch date
2023-11-11
Launch site
AFWTR
Launch vehicle
Mass (kg)
RCS (m²)

Purposes: earth_obs

External: N2YO · Heavens-Above · Gunter

§ Orbital elements

Epoch: 2026-05-25T05:20:30.385824Z

Period
93.27 min
Inclination
97.3967°
Eccentricity
0.0006404
Mean motion
15.43908949 rev/d
Perigee alt
430.2 km
Apogee alt
438.9 km
Semi-major
6,812.7 km
B*
4.1586e-4
RAAN
234.8462°
Arg perigee
186.6919°
Mean anomaly
173.4244°
Rev number
14,210

§ Raw data

LEMUR-2-MJR0926201 58340U 23174CN  26145.22257391  .00018841  00000+0  41586-3 0  99942 58340  97.3967 234.8462 0006404 186.6919 173.4244 15.43908949142101

JSON: /api/v1/satellites/58340 · /tle

For live sub-satellite position, see the globe view (requires WebGL).

§ Visibility from observer

Set your observer location to see the next 7 days of passes ≥ 10°. The values pass through the URL so the page stays shareable.

No JS? Fill the form by hand. The geolocation button needs JavaScript.